• In Netherlands
  • List of Countries
  • For 7 days
  • Water Temperature
  • Satellite Maps
  • Weather Map
  • Weather Widgets
  • user-avatar
    Login

    Hourly Weather Pomorie

    Today, 16 August, Wednesday

    Time Temperature Precipitation Wind Pressure Humidity
    00:00 +22°C° 0 mm 7 mps 760 mmHg 73%
    01:00 +22°C° 0 mm 7 mps 760 mmHg 73%
    02:00 +22°C° 0 mm 8 mps 759 mmHg 70%
    03:00 +22°C° 0 mm 8 mps 759 mmHg 72%
    04:00 +21°C° 0 mm 8 mps 759 mmHg 74%
    05:00 +21°C° 0 mm 7 mps 759 mmHg 75%
    06:00 +22°C° 0 mm 8 mps 759 mmHg 70%
    07:00 +24°C° 0 mm 8 mps 759 mmHg 65%
    08:00 +26°C° 0 mm 10 mps 759 mmHg 59%
    09:00 +28°C° 0.1 mm 10 mps 759 mmHg 53%
    10:00 +31°C° 0.1 mm 9 mps 759 mmHg 47%
    11:00 +33°C° 0.1 mm 9 mps 759 mmHg 41%
    12:00 +33°C° 0.1 mm 9 mps 759 mmHg 40%
    13:00 +33°C° 0.1 mm 9 mps 759 mmHg 38%
    14:00 +33°C° 0.1 mm 9 mps 759 mmHg 36%
    15:00 +33°C° 0.1 mm 9 mps 759 mmHg 36%
    16:00 +33°C° 0.1 mm 9 mps 759 mmHg 37%
    17:00 +33°C° 0.1 mm 9 mps 759 mmHg 37%
    18:00 +31°C° 0.3 mm 8 mps 759 mmHg 44%
    19:00 +28°C° 0.3 mm 7 mps 759 mmHg 52%
    20:00 +27°C° 0.3 mm 6 mps 759 mmHg 59%
    21:00 +26°C° 0.2 mm 6 mps 759 mmHg 60%
    22:00 +25°C° 0.2 mm 5 mps 759 mmHg 61%
    23:00 +23°C° 0.2 mm 4 mps 759 mmHg 63%

    Tomorrow, 17 August, Thursday

    Time Temperature Precipitation Wind Pressure Humidity
    00:00 +23°C° 0.1 mm 4 mps 759 mmHg 61%
    01:00 +23°C° 0.1 mm 5 mps 759 mmHg 58%
    02:00 +22°C° 0.1 mm 5 mps 759 mmHg 56%
    03:00 +22°C° 0.1 mm 5 mps 759 mmHg 55%
    04:00 +22°C° 0.1 mm 5 mps 759 mmHg 53%
    05:00 +21°C° 0.1 mm 5 mps 759 mmHg 51%
    06:00 +23°C° 0 mm 5 mps 759 mmHg 46%
    07:00 +26°C° 0 mm 6 mps 759 mmHg 41%
    08:00 +29°C° 0 mm 6 mps 759 mmHg 36%
    09:00 +32°C° 0 mm 6 mps 759 mmHg 31%
    10:00 +34°C° 0 mm 6 mps 759 mmHg 27%
    11:00 +36°C° 0 mm 6 mps 759 mmHg 22%
    12:00 +36°C° 0 mm 7 mps 759 mmHg 22%
    13:00 +38°C° 0 mm 7 mps 759 mmHg 21%
    14:00 +38°C° 0 mm 7 mps 758 mmHg 20%
    15:00 +36°C° 0 mm 7 mps 758 mmHg 23%
    16:00 +36°C° 0 mm 7 mps 758 mmHg 25%
    17:00 +35°C° 0 mm 7 mps 758 mmHg 28%
    18:00 +32°C° 0 mm 6 mps 759 mmHg 38%
    19:00 +29°C° 0 mm 5 mps 759 mmHg 48%
    20:00 +26°C° 0 mm 4 mps 759 mmHg 58%
    21:00 +25°C° 0 mm 4 mps 759 mmHg 58%
    22:00 +25°C° 0 mm 3 mps 759 mmHg 59%
    23:00 +24°C° 0 mm 3 mps 759 mmHg 59%

    Day after tomorrow, 18 August, Friday

    Time Temperature Precipitation Wind Pressure Humidity
    00:00 +23°C° 0 mm 4 mps 759 mmHg 57%
    01:00 +22°C° 0 mm 4 mps 759 mmHg 55%
    02:00 +22°C° 0 mm 4 mps 759 mmHg 52%
    03:00 +22°C° 0 mm 4 mps 759 mmHg 51%
    04:00 +22°C° 0 mm 4 mps 759 mmHg 49%
    05:00 +21°C° 0 mm 5 mps 759 mmHg 48%
    06:00 +25°C° 0 mm 5 mps 759 mmHg 44%
    07:00 +27°C° 0 mm 5 mps 759 mmHg 39%
    08:00 +29°C° 0 mm 5 mps 760 mmHg 35%
    09:00 +32°C° 0 mm 5 mps 760 mmHg 30%
    10:00 +34°C° 0 mm 6 mps 760 mmHg 25%
    11:00 +38°C° 0 mm 6 mps 760 mmHg 20%
    12:00 +38°C° 0 mm 7 mps 760 mmHg 20%
    13:00 +38°C° 0 mm 7 mps 760 mmHg 20%
    14:00 +38°C° 0 mm 7 mps 760 mmHg 20%
    15:00 +36°C° 0 mm 6 mps 760 mmHg 22%
    16:00 +36°C° 0 mm 6 mps 760 mmHg 25%
    17:00 +35°C° 0 mm 5 mps 760 mmHg 28%
    18:00 +32°C° 0 mm 5 mps 760 mmHg 40%
    19:00 +28°C° 0 mm 4 mps 760 mmHg 53%
    20:00 +26°C° 0 mm 3 mps 761 mmHg 66%
    21:00 +25°C° 0 mm 3 mps 761 mmHg 69%
    22:00 +24°C° 0 mm 3 mps 761 mmHg 73%
    23:00 +22°C° 0 mm 3 mps 761 mmHg 77%

    19 August, Saturday

    Time Temperature Precipitation Wind Pressure Humidity
    00:00 +22°C° 0 mm 3 mps 760 mmHg 75%
    01:00 +22°C° 0 mm 3 mps 760 mmHg 72%
    02:00 +21°C° 0 mm 3 mps 760 mmHg 70%
    03:00 +21°C° 0 mm 3 mps 760 mmHg 66%
    04:00 +21°C° 0 mm 3 mps 760 mmHg 62%
    05:00 +21°C° 0 mm 4 mps 760 mmHg 58%
    06:00 +23°C° 0 mm 4 mps 760 mmHg 51%
    07:00 +27°C° 0 mm 4 mps 760 mmHg 43%
    08:00 +29°C° 0 mm 4 mps 760 mmHg 35%
    09:00 +32°C° 0 mm 4 mps 760 mmHg 31%
    10:00 +34°C° 0 mm 4 mps 760 mmHg 27%
    11:00 +36°C° 0 mm 5 mps 760 mmHg 22%
    12:00 +36°C° 0 mm 5 mps 759 mmHg 22%
    13:00 +37°C° 0 mm 5 mps 759 mmHg 23%
    14:00 +39°C° 0 mm 5 mps 759 mmHg 23%
    15:00 +37°C° 0 mm 5 mps 759 mmHg 27%
    16:00 +36°C° 0 mm 5 mps 758 mmHg 30%
    17:00 +35°C° 0 mm 5 mps 758 mmHg 34%
    18:00 +33°C° 0 mm 4 mps 759 mmHg 46%
    19:00 +29°C° 0 mm 4 mps 759 mmHg 57%
    20:00 +27°C° 0 mm 3 mps 759 mmHg 69%
    21:00 +26°C° 0 mm 3 mps 759 mmHg 72%
    22:00 +25°C° 0 mm 2 mps 759 mmHg 76%
    23:00 +24°C° 0 mm 2 mps 759 mmHg 79%

    20 August, Sunday

    Time Temperature Precipitation Wind Pressure Humidity
    00:00 +24°C° 0 mm 2 mps 759 mmHg 79%
    01:00 +23°C° 0 mm 2 mps 759 mmHg 78%
    02:00 +22°C° 0 mm 3 mps 759 mmHg 78%
    03:00 +22°C° 0 mm 3 mps 759 mmHg 77%
    04:00 +21°C° 0 mm 3 mps 759 mmHg 76%
    05:00 +21°C° 0 mm 3 mps 759 mmHg 75%
    06:00 +24°C° 0 mm 3 mps 759 mmHg 64%
    07:00 +26°C° 0 mm 3 mps 759 mmHg 53%
    08:00 +29°C° 0 mm 3 mps 759 mmHg 42%
    09:00 +31°C° 0 mm 3 mps 759 mmHg 36%
    10:00 +33°C° 0 mm 3 mps 759 mmHg 30%
    11:00 +35°C° 0 mm 3 mps 759 mmHg 23%
    12:00 +36°C° 0 mm 3 mps 759 mmHg 22%
    13:00 +37°C° 0 mm 3 mps 758 mmHg 20%
    14:00 +38°C° 0 mm 4 mps 758 mmHg 19%
    15:00 +37°C° 0 mm 4 mps 758 mmHg 20%
    16:00 +37°C° 0 mm 4 mps 758 mmHg 22%
    17:00 +37°C° 0 mm 4 mps 757 mmHg 23%
    18:00 +34°C° 0 mm 3 mps 758 mmHg 31%
    19:00 +30°C° 0 mm 2 mps 758 mmHg 38%
    20:00 +27°C° 0 mm 2 mps 758 mmHg 46%
    21:00 +26°C° 0 mm 1 mps 758 mmHg 48%
    22:00 +25°C° 0 mm 1 mps 758 mmHg 50%
    23:00 +23°C° 0 mm 0 mps 758 mmHg 52%

    21 August, Monday

    Time Temperature Precipitation Wind Pressure Humidity
    00:00 +24°C° 0 mm 1 mps 758 mmHg 53%
    01:00 +24°C° 0 mm 1 mps 758 mmHg 54%
    02:00 +24°C° 0 mm 1 mps 758 mmHg 55%
    03:00 +23°C° 0 mm 1 mps 758 mmHg 55%
    04:00 +23°C° 0 mm 2 mps 758 mmHg 56%
    05:00 +23°C° 0 mm 2 mps 758 mmHg 57%
    06:00 +24°C° 0.1 mm 3 mps 758 mmHg 55%
    07:00 +25°C° 0.1 mm 3 mps 759 mmHg 53%
    08:00 +27°C° 0.1 mm 4 mps 759 mmHg 51%
    09:00 +29°C° 0.1 mm 4 mps 759 mmHg 49%
    10:00 +30°C° 0.1 mm 4 mps 759 mmHg 46%
    11:00 +33°C° 0.1 mm 4 mps 759 mmHg 43%
    12:00 +33°C° 0 mm 4 mps 758 mmHg 42%
    13:00 +34°C° 0 mm 4 mps 758 mmHg 40%
    14:00 +34°C° 0 mm 4 mps 758 mmHg 38%
    15:00 +34°C° 0 mm 4 mps 758 mmHg 40%
    16:00 +34°C° 0 mm 4 mps 758 mmHg 42%
    17:00 +33°C° 0 mm 4 mps 758 mmHg 43%
    18:00 +30°C° 0.1 mm 3 mps 758 mmHg 55%
    19:00 +27°C° 0.1 mm 2 mps 758 mmHg 66%
    20:00 +25°C° 0.1 mm 2 mps 758 mmHg 78%
    21:00 +24°C° 0 mm 1 mps 758 mmHg 79%
    22:00 +24°C° 0 mm 1 mps 758 mmHg 81%
    23:00 +23°C° 0 mm 1 mps 758 mmHg 82%
    Show more